Regional Weather Roundup
Issued by NWS Newport/Morehead, NC

Current Version | Previous Version | Text Only | Print | Product List | Glossary On
Versions: 1 2 3 4 5 6 7 8 9 10 11 12 13 14 15 16 17 18 19 20 21 22 23 24 25 26 27 28 29 30 31 32 33 34 35 36 37 38 39 40 41 42 43 44 45 46 47 48 49 50
000
ASUS42 KMHX 021213
RWRMHX
WEATHER ROUNDUP FOR EASTERN NORTH CAROLINA
NATIONAL WEATHER SERVICE NEWPORT/MOREHEAD CITY NC
800 AM EDT THU JUL 02 2015

NOTE: "FAIR" INDICATES FEW OR NO CLOUDS BELOW 12,000 FEET
WITH NO SIGNIFICANT WEATHER AND/OR OBSTRUCTIONS TO VISIBILITY

NCZ015>017-031-032-045>047-102-103-021300-
NORTH COAST

CITY           SKY/WX    TMP DP  RH WIND       PRES   REMARKS
EDENTON        NOT AVBL
ELIZABETH CITY MOSUNNY   78  73  84 SW12      29.92R
KITTY HAWK     NOT AVBL
MANTEO         NOT AVBL

$$

NCZ045>047-081-094-103-104-021300-
CENTRAL COAST

CITY           SKY/WX    TMP DP  RH WIND       PRES   REMARKS
FRISCO         SUNNY     80  75  84 SW8       29.95R
SWANQUARTER      N/A     81 N/A N/A SW5G14    29.91R

$$

NCZ095-097-098-100-101-021300-
SOUTHERN COAST

CITY           SKY/WX    TMP DP  RH WIND       PRES   REMARKS
BEAUFORT       MOSUNNY   81  77  88 SW14      29.96R
CEDAR ISLAND     N/A     79 N/A N/A SW8G14    29.97S
JACKSONVILLE   MOSUNNY   78  71  79 W9        29.96R
PINEY ISLAND   MOSUNNY  N/A N/A N/A SW9       29.95R
WILMINGTON     MOSUNNY   79  71  76 SW9       29.97R


$$

NCZ011>013-027>030-043-044-078>080-089-090>093-098-021300-
COASTAL PLAIN

CITY           SKY/WX    TMP DP  RH WIND       PRES   REMARKS
AHOSKIE        LGT RAIN  73  71  92 CALM      29.91S
CLINTON        NOT AVBL
ELIZABETHTOWN  NOT AVBL
GOLDSBORO      CLOUDY    76  72  85 SW9       29.93R
GREENVILLE     NOT AVBL
HAVELOCK       SUNNY     78  73  84 SW8       29.96R
KENANSVILLE    NOT AVBL
KINSTON        PTSUNNY   77  72  83 SW7         N/A  FOG
NEW BERN       SUNNY     76  72  87 SW6       29.97R
RICHLANDS      MOSUNNY   75  68  78 SW8       29.97R
ROCKY MOUNT    CLOUDY    76  73  91 SW6       29.93R FOG
WASHINGTON     NOT AVBL
WHITEVILLE     NOT AVBL

$$

AMZ130-135-150-152-154-156-158-170-250-252-270-ANZ085-086-088-633-658-670-021300-
MARINE OBSERVATIONS

STATION/POSITION TIME  TEMP    WIND        PRES    WAVE   SWELL
                       AIR SEA DIR/SP/G            HT/PER HT/PER
                 (UTC) (F)     (DEG/KT/KT) (MB)    (FT/S) (FT/S)
CHESAPEAKE LIGHT 1200   77     200/ 14/ 15 1013.0
64 E VA BEACH    1150   77 77  210/ 10/ 12 1012.5    4/ 8   3/ 8
DUCK             1100   78 64  220/  8/ 12 1012.0
2 E DUCK         1111      72                N/A     2/ 8
OREGON INLET     1100   80 79  220/ 12/ 15 1012.9
13E OREGON INLT  1200      73                N/A     3/ 8
HATTERAS CG      1100   77 80  210/  6/ 10 1013.4
DIAMOND BUOY     1150   81 83  230/ 16/ 19 1013.8    4/ 8   2/ 8
CAPE LOOKOUT     1200   80     230/  8/ 12 1014.5
BEAUFORT LAB     1100   80 80  220/  6/ 11 1013.3
30 SE NEW RVR IN 1108   80 80  240/ 12/ 17 1014.6
27 SE WRIGHTSVLE 1100      80  240/ 14/ 16   N/A
5 SE WRIGHTSVLE  NOT AVBL
225 S CAPE HAT   1150   82 80  220/ 19/ 23 1018.3    6/ 7
41 SE CHARLESTON 1150   81 82  240/ 16/ 17 1015.9    4/ 6   2/ 8

$$


USA.gov is the U.S. government's official web portal to all federal, state and local government web resources and services.